Location: Plainartige
(45.6866°N, 1.7993°E)
Time: 04:24:02
(UTC+00:00)

deb r/b Ablestar - Pass Details

Date: 04 October 2021
Orbit: 844 x 997 km, 67.7° (Epoch: 16 October)

Event Time Altitude Azimuth Distance (km) Brightness Sun altitude
Rises 17:56:32 0° 333° (NNW) 3,413 ? -6.0°
Reaches altitude 10° 17:59:27 10° 347° (NNW) 2,480 ? -6.5°
Maximum altitude 18:04:05 25° 42° (NE) 1,668 ? -7.3°
Drops below altitude 10° 18:08:48 10° 97° (E) 2,519 ? -8.1°
Enters shadow 18:08:54 10° 97° (E) 2,550 ? -8.1°
